TimeEDT,TemperatureF,Dew PointF,Humidity,Sea Level PressureIn,VisibilityMPH,Wind Direction,Wind SpeedMPH,Gust SpeedMPH,PrecipitationIn,Events,Conditions,WindDirDegrees,DateUTC
12:53 AM,51.1,46.9,86,30.02,10.0,NE,4.6,-,N/A,,Clear,40,2013-09-26 04:53:00
1:53 AM,50.0,46.9,89,30.02,10.0,NE,4.6,-,N/A,,Clear,50,2013-09-26 05:53:00
2:53 AM,50.0,46.0,86,30.04,10.0,Calm,Calm,-,N/A,,Clear,0,2013-09-26 06:53:00
3:53 AM,48.9,46.0,90,30.05,10.0,Calm,Calm,-,N/A,,Clear,0,2013-09-26 07:53:00
4:53 AM,48.0,45.0,89,30.06,10.0,ENE,3.5,-,N/A,,Clear,60,2013-09-26 08:53:00
5:53 AM,48.0,45.0,89,30.08,8.0,NE,3.5,-,N/A,,Clear,50,2013-09-26 09:53:00
6:53 AM,46.0,44.1,93,30.10,7.0,NE,3.5,-,N/A,,Clear,50,2013-09-26 10:53:00
7:53 AM,44.1,42.1,93,30.11,6.0,East,5.8,-,N/A,,Clear,90,2013-09-26 11:53:00
8:53 AM,51.1,48.0,89,30.13,7.0,Calm,Calm,-,N/A,,Clear,0,2013-09-26 12:53:00
9:01 AM,51.8,48.2,88,30.12,6.0,ENE,4.6,-,N/A,,Partly Cloudy,60,2013-09-26 13:01:00
9:53 AM,53.1,50.0,89,30.14,6.0,ENE,6.9,-,N/A,,Scattered Clouds,70,2013-09-26 13:53:00
10:53 AM,57.0,51.1,81,30.14,10.0,ENE,5.8,-,N/A,,Partly Cloudy,70,2013-09-26 14:53:00
11:53 AM,64.0,52.0,65,30.13,10.0,ENE,6.9,-,N/A,,Partly Cloudy,60,2013-09-26 15:53:00
12:53 PM,68.0,51.1,55,30.12,10.0,East,6.9,-,N/A,,Clear,80,2013-09-26 16:53:00
1:53 PM,71.1,48.0,44,30.11,10.0,ENE,4.6,-,N/A,,Clear,60,2013-09-26 17:53:00
2:53 PM,73.9,46.9,38,30.10,10.0,Calm,Calm,-,N/A,,Clear,0,2013-09-26 18:53:00
3:53 PM,75.0,46.9,37,30.10,10.0,ESE,4.6,-,N/A,,Clear,110,2013-09-26 19:53:00
4:53 PM,75.0,48.0,38,30.10,10.0,Variable,4.6,-,N/A,,Clear,0,2013-09-26 20:53:00
5:53 PM,75.0,48.9,40,30.11,10.0,ENE,5.8,-,N/A,,Clear,60,2013-09-26 21:53:00
6:53 PM,71.1,50.0,47,30.11,10.0,NE,5.8,-,N/A,,Clear,50,2013-09-26 22:53:00
7:53 PM,64.0,50.0,60,30.12,10.0,NNE,3.5,-,N/A,,Clear,30,2013-09-26 23:53:00
8:53 PM,60.1,50.0,69,30.13,10.0,Calm,Calm,-,N/A,,Clear,0,2013-09-27 00:53:00
9:53 PM,57.9,50.0,75,30.14,10.0,East,3.5,-,N/A,,Clear,90,2013-09-27 01:53:00
10:53 PM,57.0,48.9,74,30.14,10.0,East,3.5,-,N/A,,Clear,90,2013-09-27 02:53:00
11:53 PM,55.9,48.9,77,30.14,10.0,Calm,Calm,-,N/A,,Clear,0,2013-09-27 03:53:00